Weather History for KMWM - July, 2013

Change the Weather History Date:

Thursday, July 25, 2013

  Actual Average Record
Temperature  
Mean Temperature 72 °F -  
Max Temperature 82 °F 84 °F 97 °F (1976)
Min Temperature 62 °F 62 °F 49 °F (1991)
Cooling Degree Days 7    
Growing Degree Days 22 (Base 50)    
Moisture  
Dew Point 62 °F    
Average Humidity 71    
Maximum Humidity 88    
Minimum Humidity 54    
Precipitation  
Precipitation 0.02 in - - ()
Sea Level Pressure  
Sea Level Pressure 29.99 in    
Wind  
Wind Speed 5 mph (SW)    
Max Wind Speed 14 mph    
Max Gust Speed 24 mph    
Visibility 10 miles    
Events Rain , Thunderstorm    
Averages and records for this station are not official NWS values.
T = Trace of Precipitation, MM = Missing Value Source: NWS Daily Summary

Daily Weather History Graph

Daily Weather History Graph

Search for Another Location

Airport or City:

Trip Planner

Search our weather history database for the weather conditions in past years. The results will help you decide how hot, cold, wet, or windy it might be!

Date:

Astronomy

Jul. 25, 2013 Rise Set
Actual Time 6:01 AM CDT 8:51 PM CDT
Civil Twilight 5:27 AM CDT 9:25 PM CDT
Nautical Twilight 4:45 AM CDT 10:07 PM CDT
Astronomical Twilight 3:55 AM CDT 10:57 PM CDT
Moon 10:22 PM CDT (7/25) 9:41 AM CDT (7/25)
Length of Visible Light 15h 57m
Length of Day
14h 49m
Waning Gibbous, 88% of the Moon is Illuminated
Jul 25
Waning Gibbous
Jul 29
Last Quarter
Aug 6
New
Aug 14
First Quarter
Aug 20
Full

Hourly Weather History & Observations

Time (CDT) Temp. Heat Index Dew Point Humidity Pressure Visibility Wind Dir Wind Speed Gust Speed Precip Events Conditions
12:12 AM 64.4 °F - 57.2 °F 77% 30.03 in 10.0 mi Calm Calm - N/A   Clear
12:32 AM 66.2 °F - 55.4 °F 68% 30.03 in 10.0 mi Calm Calm - N/A   Clear
12:53 AM 66.2 °F - 55.4 °F 68% 30.03 in 10.0 mi Calm Calm - N/A   Clear
1:12 AM 64.4 °F - 55.4 °F 73% 30.02 in 10.0 mi Calm Calm - N/A   Clear
1:32 AM 64.4 °F - 55.4 °F 73% 30.02 in 10.0 mi Calm Calm - N/A   Clear
1:53 AM 62.6 °F - 57.2 °F 82% 30.02 in 10.0 mi Calm Calm - N/A   Clear
2:12 AM 62.6 °F - 57.2 °F 82% 30.02 in 10.0 mi Calm Calm - N/A   Clear
2:32 AM 64.4 °F - 57.2 °F 77% 30.02 in 10.0 mi SSW 4.6 mph - N/A   Clear
2:53 AM 64.4 °F - 57.2 °F 77% 30.01 in 10.0 mi SSW 4.6 mph - N/A   Clear
3:12 AM 64.4 °F - 57.2 °F 77% 30.00 in 10.0 mi SSW 10.4 mph - N/A   Clear
3:32 AM 64.4 °F - 57.2 °F 77% 30.00 in 10.0 mi SSW 6.9 mph - N/A   Clear
3:53 AM 64.4 °F - 57.2 °F 77% 30.00 in 10.0 mi SW 8.1 mph - N/A   Clear
4:12 AM 64.4 °F - 57.2 °F 77% 30.00 in 10.0 mi WSW 6.9 mph - N/A   Clear
4:32 AM 64.4 °F - 57.2 °F 77% 30.00 in 10.0 mi SW 8.1 mph - N/A   Clear
4:53 AM 64.4 °F - 57.2 °F 77% 30.00 in 10.0 mi WSW 4.6 mph - N/A   Clear
5:12 AM 62.6 °F - 57.2 °F 82% 30.00 in 10.0 mi WSW 3.5 mph - N/A   Clear
5:32 AM 62.6 °F - 57.2 °F 82% 30.00 in 10.0 mi Calm Calm - N/A   Clear
5:53 AM 62.6 °F - 57.2 °F 82% 30.00 in 10.0 mi Calm Calm - N/A   Clear
6:12 AM 62.6 °F - 57.2 °F 82% 30.00 in 10.0 mi SW 4.6 mph - N/A   Clear
6:32 AM 64.4 °F - 57.2 °F 77% 30.00 in 10.0 mi SW 6.9 mph - N/A   Clear
6:53 AM 64.4 °F - 59.0 °F 83% 30.01 in 10.0 mi SW 8.1 mph - N/A   Clear
7:12 AM 66.2 °F - 59.0 °F 78% 30.01 in 10.0 mi SW 9.2 mph - N/A   Clear
7:32 AM 68.0 °F - 60.8 °F 78% 30.01 in 10.0 mi SW 11.5 mph - N/A   Clear
7:53 AM 69.8 °F - 60.8 °F 73% 30.01 in 10.0 mi SW 10.4 mph 16.1 mph N/A   Clear
8:12 AM 71.6 °F - 60.8 °F 69% 30.00 in 10.0 mi SW 13.8 mph 18.4 mph N/A   Clear
8:32 AM 73.4 °F - 62.6 °F 69% 30.00 in 10.0 mi SW 12.7 mph 17.3 mph N/A   Clear
8:53 AM 73.4 °F - 62.6 °F 69% 30.00 in 10.0 mi WSW 10.4 mph - N/A   Clear
9:12 AM 75.2 °F - 62.6 °F 65% 30.00 in 10.0 mi SW 12.7 mph - N/A   Clear
9:32 AM 77.0 °F - 62.6 °F 61% 30.00 in 10.0 mi WSW 12.7 mph - N/A   Clear
9:53 AM 78.8 °F - 62.6 °F 57% 30.00 in 10.0 mi SW 10.4 mph - N/A   Clear
10:12 AM 78.8 °F - 62.6 °F 57% 30.00 in 10.0 mi SW 11.5 mph - N/A   Clear
10:32 AM 78.8 °F - 64.4 °F 61% 30.00 in 10.0 mi SW 11.5 mph - N/A   Clear
10:53 AM 78.8 °F - 64.4 °F 61% 30.01 in 10.0 mi SW 11.5 mph 17.3 mph N/A   Clear
11:12 AM 78.8 °F - 64.4 °F 61% 30.01 in 10.0 mi SSW 9.2 mph - N/A   Clear
11:32 AM 80.6 °F 82.3 °F 64.4 °F 58% 30.01 in 10.0 mi SSW 10.4 mph - N/A   Clear
11:53 AM 80.6 °F 82.3 °F 64.4 °F 58% 30.01 in 10.0 mi WSW 10.4 mph - N/A   Clear
12:12 PM 80.6 °F 82.3 °F 64.4 °F 58% 30.00 in 10.0 mi WSW 8.1 mph - N/A   Clear
12:33 PM 80.6 °F 82.3 °F 64.4 °F 58% 30.01 in 10.0 mi WSW 8.1 mph - N/A   Clear
12:52 PM 82.4 °F 83.9 °F 64.4 °F 54% 30.00 in 10.0 mi WSW 6.9 mph - N/A   Clear
1:12 PM 82.4 °F 84.6 °F 66.2 °F 58% 29.99 in 10.0 mi WSW 6.9 mph - N/A   Clear
1:33 PM 82.4 °F 83.9 °F 64.4 °F 54% 29.99 in 10.0 mi SW 4.6 mph - N/A   Scattered Clouds
1:52 PM 82.4 °F 83.9 °F 64.4 °F 54% 29.98 in 10.0 mi West 6.9 mph - N/A   Scattered Clouds
2:12 PM 82.4 °F 83.9 °F 64.4 °F 54% 29.98 in 10.0 mi West 3.5 mph - N/A   Scattered Clouds
2:33 PM 82.4 °F 84.6 °F 66.2 °F 58% 29.97 in 10.0 mi West 10.4 mph - N/A   Scattered Clouds
2:52 PM 77.0 °F - 68.0 °F 74% 29.97 in 10.0 mi NW 10.4 mph - N/A Rain , Thunderstorm Light Thunderstorms and Rain
3:12 PM 73.4 °F - 62.6 °F 69% 29.97 in 10.0 mi WNW 9.2 mph 24.2 mph 0.02 in Rain , Thunderstorm Light Thunderstorms and Rain
3:33 PM 73.4 °F - 68.0 °F 83% 29.98 in 10.0 mi North 8.1 mph - 0.02 in   Scattered Clouds
3:52 PM 78.8 °F - 64.4 °F 61% 29.97 in 10.0 mi NNE 13.8 mph - 0.02 in   Scattered Clouds
4:12 PM 77.0 °F - 62.6 °F 61% 29.96 in 10.0 mi NNE 10.4 mph - N/A   Clear
4:33 PM 78.8 °F - 64.4 °F 61% 29.96 in 10.0 mi NNE 9.2 mph - N/A   Clear
4:52 PM 78.8 °F - 66.2 °F 65% 29.97 in 10.0 mi NE 9.2 mph 16.1 mph N/A   Clear
5:12 PM 80.6 °F 82.3 °F 64.4 °F 58% 29.96 in 10.0 mi NE 8.1 mph 17.3 mph N/A   Scattered Clouds
5:33 PM 80.6 °F 82.3 °F 64.4 °F 58% 29.95 in 10.0 mi NE 8.1 mph - N/A   Clear
5:52 PM 78.8 °F - 64.4 °F 61% 29.96 in 10.0 mi NE 6.9 mph - N/A   Clear
6:13 PM 77.0 °F - 64.4 °F 65% 29.96 in 10.0 mi Calm Calm - N/A   Clear
6:32 PM 78.8 °F - 64.4 °F 61% 29.95 in 10.0 mi ENE 4.6 mph - N/A   Clear
6:52 PM 78.8 °F - 64.4 °F 61% 29.95 in 10.0 mi ENE 4.6 mph - N/A   Clear
7:13 PM 78.8 °F - 66.2 °F 65% 29.95 in 10.0 mi ENE 3.5 mph - N/A   Clear
7:32 PM 77.0 °F - 66.2 °F 69% 29.95 in 10.0 mi East 3.5 mph - N/A   Clear
7:52 PM 73.4 °F - 66.2 °F 78% 29.96 in 10.0 mi Calm Calm - N/A   Clear
8:13 PM 73.4 °F - 66.2 °F 78% 29.97 in 10.0 mi Calm Calm - N/A   Clear
8:32 PM 73.4 °F - 66.2 °F 78% 29.97 in 10.0 mi Calm Calm - N/A   Clear
8:52 PM 71.6 °F - 66.2 °F 83% 29.97 in 10.0 mi Calm Calm - N/A   Clear
9:13 PM 71.6 °F - 66.2 °F 83% 29.98 in 10.0 mi Calm Calm - N/A   Clear
9:32 PM 69.8 °F - 64.4 °F 83% 29.99 in 10.0 mi Calm Calm - N/A   Clear
9:52 PM 69.8 °F - 62.6 °F 78% 30.00 in 10.0 mi SSE 3.5 mph - N/A   Clear
10:13 PM 69.8 °F - 62.6 °F 78% 30.00 in 10.0 mi South 3.5 mph - N/A   Clear
10:32 PM 68.0 °F - 62.6 °F 83% 30.00 in 10.0 mi Calm Calm - N/A   Scattered Clouds
10:52 PM 66.2 °F - 62.6 °F 88% 29.99 in 10.0 mi Calm Calm - N/A   Scattered Clouds
11:13 PM 66.2 °F - 62.6 °F 88% 29.98 in 10.0 mi Calm Calm - N/A   Scattered Clouds
11:32 PM 64.4 °F - 60.8 °F 88% 29.98 in 10.0 mi Calm Calm - N/A   Clear
11:53 PM 64.4 °F - 60.8 °F 88% 29.98 in 10.0 mi Calm Calm - N/A   Scattered Clouds